カタログに戻る

STARLINK-33785

運用中通信VLEO
NORAD 63516·PAYLOAD·🇺🇸 United States

打ち上げ Apr 7, 2025 から Vandenberg Space Force Base

Loading…

次のパス (今後24時間)

TLE

最新Source: CelesTrak SupGP

元期: Sep 14, 2026, 22:33 UTC

1 63516C 25071Z   26257.94006944 -.00010761  00000+0 -34612-3 0  2576
2 63516  53.1605 339.6660 0001218  82.2194 200.4023 15.31702007    12

AllMySatでSTARLINK-33785をリアルタイム追跡

Download on the App Store